Location: Marcé
(47.5801°N, 0.3280°W)
Time: 18:24:37
(UTC+01:00)

Tiros 1 despin weight - Pass Details

Date: 02 December 2021
Orbit: 592 x 641 km, 48.2° (Epoch: 21 January)

Event Time Altitude Azimuth Distance (km) Brightness Sun altitude
Rises 19:11:48 0° 284° (WNW) 2,826 ? -19.5°
Reaches altitude 10° 19:14:05 10° 281° (WNW) 1,924 ? -19.9°
Maximum altitude 19:18:27 64° 201° (SSW) 659 ? -20.6°
Enters shadow 19:19:50 41° 136° (SE) 874 ? -20.9°
